CW7911 Weather Reports


time (UTC)temp
F
wind
direction
speed
knots
gust
knots
rain 1hr
in
rain 24hr
in
rain mn
in
humidity
%
barometer
mb
20260905203052 69 295 0.0 0.9 0.00 0.00 0.00 68 1022.3
20260905202547 69 295 0.0 0.0 0.00 0.00 0.00 70 1022.3
20260905202042 69 295 0.0 0.0 0.00 0.00 0.00 71 1022.1
20260905201538 68 295 0.0 0.0 0.00 0.00 0.00 72 1022.1
20260905201037 68 295 0.0 0.9 0.00 0.00 0.00 71 1021.9
20260905200533 69 295 0.0 0.0 0.00 0.00 0.00 71 1021.8
20260905200032 69 295 0.0 0.0 0.00 0.00 0.00 70 1022.1
20260905195526 69 295 0.0 0.0 0.00 0.00 0.00 68 1022.1
20260905195021 69 295 0.0 0.0 0.00 0.00 0.00 64 1022.2
20260905194516 69 295 0.0 0.0 0.00 0.00 0.00 68 1021.9
20260905194015 69 295 0.0 0.0 0.00 0.00 0.00 69 1022.1
20260905193510 69 295 0.0 0.0 0.00 0.00 0.00 64 1022.1
20260905193005 70 295 0.0 0.9 0.00 0.00 0.00 63 1021.7
20260905192500 69 295 0.0 0.9 0.00 0.00 0.00 65 1021.9
20260905191951 70 295 0.0 0.9 0.00 0.00 0.00 67 1021.7
20260905191449 69 295 0.0 0.0 0.00 0.00 0.00 65 1022.1
20260905190943 70 295 0.0 0.9 0.00 0.00 0.00 63 1021.7
20260905190441 71 295 0.0 1.7 0.00 0.00 0.00 61 1021.6
20260905185940 71 295 0.0 0.9 0.00 0.00 0.00 61 1021.8
20260905185436 71 295 0.9 1.7 0.00 0.00 0.00 60 1021.8
20260905184934 69 295 0.0 0.9 0.00 0.00 0.00 62 1021.7
20260905184429 70 295 0.0 1.7 0.00 0.00 0.00 62 1021.8
20260905183927 70 295 0.9 1.7 0.00 0.00 0.00 61 1021.7
20260905183422 69 295 0.9 0.9 0.00 0.00 0.00 66 1021.9
20260905182918 69 295 0.0 0.0 0.00 0.00 0.00 68 1022.2
20260905182416 69 295 0.0 0.0 0.00 0.00 0.00 66 1022.1
20260905181912 68 295 0.0 0.9 0.00 0.00 0.00 68 1022.1
20260905181407 69 295 0.0 0.9 0.00 0.00 0.00 67 1022.2
20260905180905 68 295 0.0 0.9 0.00 0.00 0.00 68 1022.3
20260905180401 68 295 0.0 1.7 0.00 0.00 0.00 68 1022.3
20260905175855 68 295 0.0 0.0 0.00 0.00 0.00 70 1022.2
20260905175355 68 295 0.9 0.9 0.00 0.00 0.00 69 1022.3
20260905174850 68 295 0.0 1.7 0.00 0.00 0.00 69 1022.1
20260905174346 68 295 0.0 1.7 0.00 0.00 0.00 70 1021.9
20260905173842 67 295 0.9 0.9 0.00 0.00 0.00 72 1022.1
20260905173337 68 295 0.0 0.0 0.00 0.00 0.00 73 1021.9
20260905172832 68 295 0.0 0.0 0.00 0.00 0.00 70 1022.1
20260905172330 68 295 0.0 0.9 0.00 0.00 0.00 72 1021.9
20260905171827 68 295 0.0 0.9 0.00 0.00 0.00 74 1021.9
20260905171323 67 295 0.0 0.9 0.00 0.00 0.00 75 1021.9
20260905170819 67 295 0.0 0.0 0.00 0.00 0.00 76 1022.1
20260905170315 67 295 0.0 0.9 0.00 0.00 0.00 75 1022.1
20260905165814 67 295 0.0 0.9 0.00 0.00 0.00 76 1022.2
20260905165310 67 295 0.0 0.9 0.00 0.00 0.00 76 1022.2
20260905164809 67 295 0.0 0.9 0.00 0.00 0.00 76 1022.2
20260905164304 68 295 0.0 0.9 0.00 0.00 0.00 76 1022.5
20260905163759 68 295 0.0 0.0 0.00 0.00 0.00 76 1022.3
20260905163256 67 295 0.0 0.0 0.00 0.00 0.00 77 1022.4
20260905162752 67 295 0.0 0.9 0.00 0.00 0.00 78 1022.1
20260905162251 66 295 0.0 0.9 0.00 0.00 0.00 79 1022.3
20260905161746 66 295 0.9 0.9 0.00 0.00 0.00 79 1022.3
20260905161244 66 295 0.0 0.0 0.00 0.00 0.00 80 1022.3
20260905160743 66 295 0.0 0.0 0.00 0.00 0.00 81 1022.4
20260905160237 66 295 0.0 1.7 0.00 0.00 0.00 79 1022.1
20260905155732 66 295 0.0 0.9 0.00 0.00 0.00 79 1021.9
20260905155231 67 295 0.0 0.0 0.00 0.00 0.00 80 1022.1
20260905154725 67 295 0.0 0.0 0.00 0.00 0.00 77 1022.1
20260905154221 67 295 0.0 0.0 0.00 0.00 0.00 77 1021.7
20260905153717 67 295 0.0 0.0 0.00 0.00 0.00 76 1022.1
20260905153212 67 295 0.0 0.0 0.00 0.00 0.00 76 1021.9
20260905152707 67 295 0.0 0.9 0.00 0.00 0.00 75 1022.2
20260905152201 67 295 0.9 0.9 0.00 0.00 0.00 75 1021.7
20260905151701 68 295 0.0 0.9 0.00 0.00 0.00 73 1022.1
20260905151156 69 295 0.0 1.7 0.00 0.00 0.00 72 1021.6
20260905150652 68 295 0.0 0.9 0.00 0.00 0.00 72 1021.8
20260905150151 65 295 0.9 1.7 0.00 0.00 0.00 74 1021.6
20260905145649 67 295 0.9 0.9 0.00 0.00 0.00 75 1021.8
20260905145148 66 295 0.9 1.7 0.00 0.00 0.00 76 1021.8
20260905144638 66 295 0.0 0.9 0.00 0.00 0.00 76 1021.6
20260905144137 66 295 0.9 1.7 0.00 0.00 0.00 77 1021.7
20260905143632 66 295 0.0 0.9 0.00 0.00 0.00 78 1021.8
20260905143131 66 295 0.9 0.9 0.00 0.00 0.00 79 1021.9
20260905142625 66 295 0.0 0.9 0.00 0.00 0.00 79 1021.6
20260905142124 66 295 0.0 0.0 0.00 0.00 0.00 78 1021.8
20260905141619 65 295 0.0 0.9 0.00 0.00 0.00 78 1021.7
20260905141115 65 295 0.0 0.9 0.00 0.00 0.00 80 1021.6
20260905140610 65 295 0.9 2.6 0.00 0.00 0.00 79 1021.6
20260905140109 65 295 0.0 2.6 0.00 0.00 0.00 80 1021.5
20260905135605 65 295 0.9 1.7 0.00 0.00 0.00 80 1021.4
20260905135100 64 295 0.0 0.9 0.00 0.00 0.00 80 1021.5
20260905134554 64 295 0.0 1.7 0.00 0.00 0.00 81 1021.4
20260905134053 64 295 0.0 1.7 0.00 0.00 0.00 81 1021.4
20260905133548 64 295 0.9 1.7 0.00 0.00 0.00 82 1021.3
20260905133043 64 295 0.0 0.9 0.00 0.00 0.00 83 1021.3
20260905132543 65 295 0.9 1.7 0.00 0.00 0.00 81 1021.2
20260905132037 64 295 0.0 0.9 0.00 0.00 0.00 83 1021.1
20260905131533 64 295 0.9 1.7 0.00 0.00 0.00 83 1021.2
20260905131028 64 295 0.0 0.0 0.00 0.00 0.00 84 1021.2
20260905130527 64 295 0.0 0.0 0.00 0.00 0.00 85 1021.0
20260905130023 64 295 0.0 0.0 0.00 0.00 0.00 86 1020.9
20260905125522 63 295 0.0 0.0 0.00 0.00 0.00 85 1020.9
20260905125018 63 295 0.0 0.0 0.00 0.00 0.00 86 1020.7
20260905124514 63 295 0.0 0.0 0.00 0.00 0.00 86 1021.0
20260905124009 63 295 0.0 0.0 0.00 0.00 0.00 87 1020.8
20260905123505 63 295 0.0 0.0 0.00 0.00 0.00 88 1020.7
20260905123001 62 295 0.0 0.0 0.00 0.00 0.00 89 1020.8
20260905122500 62 295 0.0 0.0 0.00 0.00 0.00 91 1020.7
20260905121955 62 295 0.0 0.0 0.00 0.00 0.00 91 1020.7
20260905121451 61 295 0.0 0.0 0.00 0.00 0.00 92 1020.6
20260905120950 61 295 0.0 0.0 0.00 0.00 0.00 93 1020.6
20260905120439 61 295 0.0 0.0 0.00 0.00 0.00 93 1020.8
20260905115934 60 295 0.0 0.0 0.00 0.00 0.00 94 1020.6
20260905115433 60 295 0.0 0.0 0.00 0.00 0.00 94 1020.5
20260905114929 59 295 0.0 0.0 0.00 0.00 0.00 94 1020.6
20260905114428 59 295 0.0 0.0 0.00 0.00 0.00 94 1020.4
20260905113921 59 295 0.0 0.0 0.00 0.00 0.00 94 1020.3
20260905113416 59 295 0.0 0.0 0.00 0.00 0.00 94 1020.4
20260905112912 59 295 0.0 0.0 0.00 0.00 0.00 94 1020.3
20260905112408 59 295 0.0 0.0 0.00 0.00 0.00 94 1020.3
20260905111903 59 295 0.0 0.0 0.00 0.00 0.00 94 1020.2
20260905111402 59 295 0.0 0.0 0.00 0.00 0.00 94 1020.3
20260905110902 59 295 0.0 0.0 0.00 0.00 0.00 94 1020.2
20260905110356 59 295 0.0 0.0 0.00 0.00 0.00 94 1020.4
20260905105852 58 295 0.0 0.0 0.00 0.00 0.00 94 1020.3
20260905105350 58 295 0.0 0.0 0.00 0.00 0.00 94 1020.2
20260905104845 58 295 0.0 0.0 0.00 0.00 0.00 94 1020.3
20260905104342 58 295 0.0 0.0 0.00 0.00 0.00 94 1020.1
20260905103841 58 295 0.0 0.0 0.00 0.00 0.00 94 1020.1
20260905103337 58 295 0.0 0.0 0.00 0.00 0.00 94 1020.0
20260905102832 58 295 0.0 0.0 0.00 0.00 0.00 94 1019.9
20260905102329 57 295 0.0 0.0 0.00 0.00 0.00 94 1019.9
20260905101829 57 295 0.0 0.0 0.00 0.00 0.00 94 1019.8
20260905101327 57 295 0.0 0.0 0.00 0.00 0.00 94 1019.8
20260905100821 57 295 0.0 0.0 0.00 0.00 0.00 94 1020.0
20260905100317 57 295 0.0 0.0 0.00 0.00 0.00 94 1020.1
20260905095816 57 295 0.0 0.0 0.00 0.00 0.00 94 1020.0
20260905095311 57 295 0.0 0.0 0.00 0.00 0.00 94 1019.9
20260905094805 57 295 0.0 0.0 0.00 0.00 0.00 94 1020.0
20260905094301 57 295 0.0 0.0 0.00 0.00 0.00 94 1019.8
20260905093800 57 295 0.0 0.0 0.00 0.00 0.00 94 1019.5
20260905093256 57 295 0.0 0.0 0.00 0.00 0.00 94 1019.6
20260905092752 57 295 0.0 0.0 0.00 0.00 0.00 94 1019.8
20260905092247 57 295 0.0 0.0 0.00 0.00 0.00 94 1019.5
20260905091747 57 295 0.0 0.0 0.00 0.00 0.00 94 1019.6
20260905091242 57 295 0.0 0.0 0.00 0.00 0.00 94 1019.5
20260905090740 57 295 0.0 0.0 0.00 0.00 0.00 94 1019.4
20260905090236 57 295 0.0 0.0 0.00 0.00 0.00 94 1019.3
20260905085735 57 295 0.0 0.0 0.00 0.00 0.00 94 1019.2
20260905085230 57 295 0.0 0.0 0.00 0.00 0.00 94 1019.2
20260905084725 57 295 0.0 0.0 0.00 0.00 0.00 94 1019.4
20260905084224 57 295 0.0 0.0 0.00 0.00 0.00 94 1019.2
20260905083719 57 295 0.0 0.0 0.00 0.00 0.00 94 1019.2
20260905083215 57 295 0.0 0.0 0.00 0.00 0.00 94 1019.2
20260905082711 57 295 0.0 0.0 0.00 0.00 0.00 94 1019.1
20260905082206 57 295 0.0 0.0 0.00 0.00 0.00 94 1019.2
20260905081701 57 295 0.0 0.0 0.00 0.00 0.00 94 1019.1
20260905081156 57 295 0.0 0.0 0.00 0.00 0.00 94 1019.0
20260905080655 57 295 0.0 0.0 0.00 0.00 0.00 94 1018.8
20260905080155 57 295 0.0 0.0 0.00 0.00 0.00 94 1018.9
20260905075654 57 295 0.0 0.0 0.00 0.00 0.00 94 1018.7
20260905075154 57 295 0.0 0.0 0.00 0.00 0.00 94 1018.9
20260905074652 57 295 0.0 0.0 0.00 0.00 0.00 94 1019.1
20260905074149 57 295 0.0 0.0 0.00 0.00 0.00 94 1018.9
20260905073644 57 295 0.0 0.0 0.00 0.00 0.00 94 1018.9
20260905073140 57 295 0.0 0.0 0.00 0.00 0.00 94 1018.9
20260905072639 57 295 0.0 0.0 0.00 0.00 0.00 94 1019.0
20260905072134 57 295 0.0 0.0 0.00 0.00 0.00 94 1019.0
20260905071631 57 295 0.0 0.0 0.00 0.00 0.00 94 1018.9
20260905071126 57 295 0.0 0.0 0.00 0.00 0.00 94 1018.9
20260905070621 57 295 0.0 0.0 0.00 0.00 0.00 94 1018.9
20260905070117 58 295 0.0 0.0 0.00 0.00 0.00 94 1018.9
20260905065615 58 295 0.0 0.0 0.00 0.00 0.00 94 1019.2
20260905065110 58 295 0.0 0.0 0.00 0.00 0.00 94 1019.4
20260905064605 58 295 0.0 0.0 0.00 0.00 0.00 94 1019.2
20260905064100 58 295 0.0 0.0 0.00 0.00 0.00 94 1019.4
20260905063553 58 295 0.0 0.0 0.00 0.00 0.00 94 1019.5
20260905063050 58 295 0.0 0.0 0.00 0.00 0.00 94 1019.3
20260905062544 58 295 0.0 0.0 0.00 0.00 0.00 94 1019.1
20260905062039 58 295 0.0 0.0 0.00 0.00 0.00 94 1019.1
20260905061534 58 295 0.0 0.0 0.00 0.00 0.00 94 1019.2
20260905061033 58 295 0.0 0.0 0.00 0.00 0.00 94 1019.1
20260905060529 58 295 0.0 0.0 0.00 0.00 0.00 94 1019.2
20260905060025 58 295 0.0 0.0 0.00 0.00 0.00 94 1019.3
20260905055523 58 295 0.0 0.0 0.00 0.00 0.00 94 1019.4
20260905055018 58 295 0.0 0.0 0.00 0.00 0.00 94 1019.3
20260905054514 58 295 0.0 0.0 0.00 0.00 0.00 94 1019.4
20260905054009 58 295 0.0 0.0 0.00 0.00 0.00 94 1019.4
20260905053503 58 295 0.0 0.0 0.00 0.00 0.00 94 1019.3
20260905053000 58 295 0.0 0.0 0.00 0.00 0.00 94 1019.5
20260905052459 58 295 0.0 0.0 0.00 0.00 0.00 94 1019.3
20260905051958 58 295 0.0 0.0 0.00 0.00 0.00 94 1019.4
20260905051454 58 295 0.0 0.0 0.00 0.00 0.00 94 1019.5
20260905050951 58 295 0.0 0.0 0.00 0.00 0.00 93 1019.4
20260905050447 58 295 0.0 0.0 0.00 0.00 0.00 93 1019.5
20260905045943 59 295 0.0 0.0 0.00 0.00 0.00 93 1019.7
20260905045437 59 295 0.0 0.0 0.00 0.00 0.00 93 1019.4
20260905044932 59 295 0.0 0.0 0.00 0.00 0.00 93 1019.4
20260905044422 59 295 0.0 0.0 0.00 0.00 0.00 93 1019.4
20260905043921 59 295 0.0 0.0 0.00 0.00 0.00 92 1019.2
20260905043420 59 295 0.0 0.0 0.00 0.00 0.00 92 1019.3
20260905042915 59 295 0.0 0.0 0.00 0.00 0.00 92 1019.2
20260905042410 59 295 0.0 0.0 0.00 0.00 0.00 92 1019.4
20260905041905 60 295 0.0 0.0 0.00 0.00 0.00 92 1019.3
20260905041401 60 295 0.0 0.0 0.00 0.00 0.00 92 1019.4
20260905040900 60 295 0.0 0.0 0.00 0.00 0.00 92 1019.3
20260905040355 60 295 0.0 0.0 0.00 0.00 0.00 92 1019.4
20260905035854 60 295 0.0 0.0 0.00 0.00 0.00 92 1019.2
20260905035350 60 295 0.0 0.0 0.00 0.00 0.00 93 1019.5
20260905034846 60 295 0.0 0.0 0.00 0.00 0.00 92 1019.5
20260905034342 60 295 0.0 0.0 0.00 0.00 0.00 92 1019.4
20260905033840 60 295 0.0 0.0 0.00 0.00 0.00 92 1019.4
20260905033336 60 295 0.0 0.0 0.00 0.00 0.00 92 1019.4
20260905032835 60 295 0.0 0.0 0.00 0.00 0.00 92 1019.4
20260905032331 60 295 0.0 0.0 0.00 0.00 0.00 92 1019.3
20260905031826 60 295 0.0 0.0 0.00 0.00 0.00 91 1019.5
20260905031321 60 295 0.0 0.0 0.00 0.00 0.00 91 1019.6
20260905030816 60 295 0.0 0.0 0.00 0.00 0.00 91 1019.6
20260905030312 60 295 0.0 0.0 0.00 0.00 0.00 90 1019.5
20260905025811 60 295 0.0 0.0 0.00 0.00 0.00 90 1019.6
20260905025306 61 295 0.0 0.0 0.00 0.00 0.00 90 1019.6
20260905024803 61 295 0.0 0.0 0.00 0.00 0.00 89 1019.6
20260905024258 61 295 0.0 0.0 0.00 0.00 0.00 89 1019.4
20260905023752 61 295 0.0 0.0 0.00 0.00 0.00 89 1019.7
20260905023242 61 295 0.0 0.0 0.00 0.00 0.00 89 1019.5
20260905022741 62 295 0.0 0.0 0.00 0.00 0.00 88 1019.6
20260905022237 62 295 0.0 0.0 0.00 0.00 0.00 88 1019.6
20260905021731 62 295 0.0 0.0 0.00 0.00 0.00 88 1019.7
20260905021226 62 295 0.0 0.0 0.00 0.00 0.00 88 1019.9
20260905020721 62 295 0.0 0.0 0.00 0.00 0.00 88 1019.7
20260905020216 62 295 0.0 0.0 0.00 0.00 0.00 88 1020.0
20260905015714 62 295 0.0 0.0 0.00 0.00 0.00 88 1019.9
20260905015209 63 295 0.0 0.0 0.00 0.00 0.00 87 1020.1
20260905014707 63 295 0.0 0.0 0.00 0.00 0.00 87 1019.8
20260905014203 63 295 0.0 0.0 0.00 0.00 0.00 87 1019.6
20260905013659 63 295 0.0 0.0 0.00 0.00 0.00 86 1019.9
20260905013155 64 295 0.0 0.0 0.00 0.00 0.00 86 1019.9
20260905012650 64 295 0.0 0.0 0.00 0.00 0.00 85 1019.9
20260905012146 64 295 0.0 0.0 0.00 0.00 0.00 85 1019.9
20260905011643 64 295 0.0 0.0 0.00 0.00 0.00 85 1019.8
20260905011138 64 295 0.0 0.0 0.00 0.00 0.00 85 1019.9
20260905010632 64 295 0.0 0.0 0.00 0.00 0.00 85 1020.0
20260905010128 64 295 0.0 0.0 0.00 0.00 0.00 86 1019.9
20260905005624 65 295 0.0 0.0 0.00 0.00 0.00 86 1019.9
20260905005119 65 295 0.0 0.0 0.00 0.00 0.00 85 1019.8
20260905004614 65 295 0.0 0.0 0.00 0.00 0.00 84 1019.5
20260905004109 65 295 0.0 0.0 0.00 0.00 0.00 84 1019.7
20260905003604 65 295 0.0 0.0 0.00 0.00 0.00 84 1019.7
20260905003100 65 295 0.0 0.0 0.00 0.00 0.00 84 1020.0
20260905002555 65 295 0.0 0.0 0.00 0.00 0.00 83 1019.6
20260905002050 65 295 0.0 0.0 0.00 0.00 0.00 83 1019.9
20260905001545 65 295 0.0 0.0 0.00 0.00 0.00 83 1019.8
20260905001045 66 295 0.0 0.0 0.00 0.00 0.00 85 1019.7
20260905000540 66 295 0.0 0.0 0.00 0.00 0.00 85 1019.6
20260905000036 66 295 0.0 0.0 0.00 0.00 0.00 83 1019.6
20260904235531 66 295 0.0 0.0 0.00 0.00 0.00 81 1019.7
20260904235031 66 295 0.0 0.0 0.00 0.00 0.00 80 1019.6
20260904234530 67 295 0.0 0.0 0.00 0.00 0.00 80 1019.6
20260904234027 67 295 0.0 0.0 0.00 0.00 0.00 79 1019.6
20260904233521 67 295 0.0 0.0 0.00 0.00 0.00 79 1019.3
20260904233018 67 295 0.0 0.0 0.00 0.00 0.00 79 1019.5
20260904232514 67 295 0.0 0.0 0.00 0.00 0.00 79 1019.4
20260904232010 68 295 0.0 0.0 0.00 0.00 0.00 79 1019.4
20260904231506 68 295 0.0 0.0 0.00 0.00 0.00 78 1019.2
20260904231001 68 295 0.0 0.0 0.00 0.00 0.00 78 1019.3
20260904230459 69 295 0.0 0.0 0.00 0.00 0.00 78 1019.4
20260904225955 69 295 0.0 0.0 0.00 0.00 0.00 80 1019.3
20260904225452 69 295 0.0 0.0 0.00 0.00 0.00 77 1019.3
20260904224946 69 295 0.0 0.0 0.00 0.00 0.00 77 1019.2
20260904224443 70 295 0.9 1.7 0.00 0.00 0.00 76 1019.4
20260904223942 70 295 0.0 2.6 0.00 0.00 0.00 75 1019.0
20260904223441 70 295 0.0 0.0 0.00 0.00 0.00 74 1019.1
20260904222937 70 295 0.0 0.0 0.00 0.00 0.00 74 1019.0
20260904222433 71 295 0.0 0.0 0.00 0.00 0.00 73 1019.2
20260904221932 71 295 0.0 0.0 0.00 0.00 0.00 71 1019.0
20260904221427 71 295 0.0 0.0 0.00 0.00 0.00 69 1019.3
20260904220923 71 295 0.0 0.0 0.00 0.00 0.00 68 1018.9
20260904220422 72 295 0.0 1.7 0.00 0.00 0.00 66 1019.3
20260904215917 72 295 0.0 0.0 0.00 0.00 0.00 65 1019.2
20260904215412 72 295 0.0 1.7 0.00 0.00 0.00 66 1019.2
20260904214908 72 295 0.9 2.6 0.00 0.00 0.00 63 1019.2
20260904214404 72 295 0.0 0.0 0.00 0.00 0.00 71 1019.3
20260904213902 72 295 0.0 0.0 0.00 0.00 0.00 64 1019.1
20260904213357 73 295 0.0 0.0 0.00 0.00 0.00 66 1019.0
20260904212853 73 295 0.0 0.9 0.00 0.00 0.00 63 1018.7
20260904212352 73 295 0.0 0.0 0.00 0.00 0.00 66 1019.1
20260904211848 73 295 0.0 0.0 0.00 0.00 0.00 65 1019.2
20260904211343 73 295 0.0 0.0 0.00 0.00 0.00 64 1019.1
20260904210838 73 295 0.0 0.9 0.00 0.00 0.00 68 1019.3
20260904210332 74 295 0.0 0.9 0.00 0.00 0.00 66 1019.1
20260904205829 74 295 0.0 0.0 0.00 0.00 0.00 66 1019.3
20260904205324 75 295 0.0 0.9 0.00 0.00 0.00 62 1018.9
20260904204821 74 295 0.9 1.7 0.00 0.00 0.00 59 1018.9
20260904204316 75 295 0.0 0.0 0.00 0.00 0.00 65 1019.1
20260904203812 75 295 0.0 0.9 0.00 0.00 0.00 59 1018.9
20260904203308 76 295 0.9 0.9 0.00 0.00 0.00 62 1018.9